CDT,Max TemperatureF,Mean TemperatureF,Min TemperatureF,Max Dew PointF,MeanDew PointF,Min DewpointF,Max Humidity, Mean Humidity, Min Humidity, Max Sea Level PressureIn, Mean Sea Level PressureIn, Min Sea Level PressureIn, Max VisibilityMiles, Mean VisibilityMiles, Min VisibilityMiles, Max Wind SpeedMPH, Mean Wind SpeedMPH, Max Gust SpeedMPH,PrecipitationIn, CloudCover, Events, WindDirDegrees
2012-10-1,73,62,48,54,46,39,83,64,35,30.06,29.99,29.91,10,10,2,29,11,37,0.12,3,Rain-Thunderstorm,354
2012-10-2,75,55,37,38,34,29,82,48,19,30.07,29.97,29.86,10,10,9,10,7,,0.00,0,,237
2012-10-3,84,66,48,50,43,34,62,44,27,29.92,29.81,29.73,10,10,9,24,15,34,0.00,0,,185
2012-10-4,61,56,46,45,34,30,63,49,33,30.30,30.21,29.98,10,10,10,28,16,38,0.00,3,,4
2012-10-5,48,42,37,37,33,28,93,69,46,30.38,30.32,30.27,10,10,7,18,10,24,0.02,4,Rain,19
2012-10-6,44,39,30,36,32,26,93,75,51,30.41,30.37,30.32,10,10,10,10,7,,0.00,7,Rain,337
2012-10-7,54,37,23,35,29,22,96,73,48,30.40,30.28,30.13,10,9,5,17,7,24,0.00,2,,226
2012-10-8,75,54,33,35,30,25,89,51,16,30.12,29.97,29.85,10,10,9,21,12,30,0.00,0,,198
2012-10-9,62,49,37,41,33,22,82,53,30,30.21,29.95,29.78,10,10,10,24,14,34,0.00,0,,345
2012-10-10,68,48,28,29,26,22,81,47,21,30.29,30.18,30.04,10,10,9,17,7,25,0.00,0,,210
2012-10-11,75,60,46,47,38,29,71,51,35,30.20,30.04,29.97,10,10,10,21,11,32,0.00,0,,115
2012-10-12,52,48,46,50,40,27,94,72,44,30.25,30.12,29.93,10,9,3,17,12,26,0.00,8,,115
2012-10-13,79,64,51,63,55,46,100,84,46,29.97,29.79,29.55,10,7,0,21,9,28,0.80,5,Fog-Rain-Thunderstorm,212
2012-10-14,75,64,51,49,42,38,77,50,25,30.05,29.92,29.65,10,10,10,30,18,44,0.00,2,Rain-Thunderstorm,313
2012-10-15,84,64,44,46,43,38,89,56,19,30.03,29.89,29.72,10,10,10,12,8,17,0.00,0,,217
2012-10-16,80,64,48,46,44,40,83,54,25,29.71,29.60,29.44,10,10,10,14,9,,0.00,0,,205
2012-10-17,66,54,43,49,34,16,74,43,18,29.83,29.61,29.39,10,10,10,30,15,43,0.00,1,,306
2012-10-18,63,53,43,26,21,16,49,30,17,29.89,29.85,29.80,10,8,3,39,20,50,0.00,3,,298
2012-10-19,66,52,39,21,16,7,40,26,10,29.95,29.87,29.81,10,10,10,22,15,33,0.00,0,,302
2012-10-20,84,60,39,46,29,20,54,34,14,29.80,29.71,29.62,10,10,10,15,8,,0.00,0,,187
2012-10-21,82,65,48,60,53,46,100,77,30,29.71,29.66,29.60,10,7,0,14,10,33,0.00,2,Fog,154
2012-10-22,63,56,48,57,51,46,96,80,65,29.83,29.76,29.65,10,8,2,17,9,,0.00,5,,347
2012-10-23,75,60,46,61,52,46,100,82,38,29.79,29.70,29.65,10,6,0,16,9,21,0.00,4,Fog,146
2012-10-24,70,56,44,60,51,42,100,88,72,29.78,29.72,29.61,10,7,0,17,9,30,0.02,5,Fog-Rain,340
2012-10-25,50,40,30,46,34,26,93,77,41,30.40,30.04,29.71,10,9,3,28,19,43,0.05,6,Rain,353
2012-10-26,45,36,28,27,24,21,88,67,46,30.61,30.48,30.37,10,10,10,14,10,18,0.00,4,,7
2012-10-27,48,36,23,26,23,20,89,67,39,30.44,30.33,30.22,10,10,10,13,5,,0.00,1,,166
2012-10-28,57,41,25,27,25,20,85,55,29,30.30,30.22,30.14,10,10,10,18,11,26,0.00,4,,170
2012-10-29,70,53,37,33,29,26,65,43,24,30.14,30.08,29.99,10,10,10,22,16,28,0.00,1,,192
2012-10-30,68,54,41,37,35,33,74,53,33,30.03,29.96,29.92,10,10,10,15,10,,0.00,0,,17
2012-10-31,73,52,32,39,36,29,92,61,28,30.08,30.03,29.96,10,10,10,9,3,,0.00,0,,202